Location: *
(53.9002°N, 27.5624°E)
Time: 11:49:33
(UTC+00:00)

Geosat - Pass Details

Date: 12 November 2019
Orbit: 763 x 766 km, 108.0° (Epoch: 06 December)

Event Time Altitude Azimuth Distance (km) Brightness Sun altitude
Exits shadow 15:25:08 - 41° (NE) 2,470 6.1 -10.1°
Reaches altitude 10° 15:25:32 10° 43° (NE) 2,317 6.0 -10.2°
Maximum altitude 15:30:19 42° 114° (ESE) 1,094 4.5 -10.9°
Drops below altitude 10° 15:35:04 10° 185° (S) 2,302 6.7 -11.5°
Sets 15:37:27 0° 192° (SSW) 3,223 7.6 -11.9°
